This is the latest recevied weather packets stored in our database for station/object HOWARD. If no packets are shown the sender has not sent any weather packets the latest 1 day(s).
| Time | Temp. | Humidity | Pressure | Rain* | Wind** | Luminosity | Snow |
|---|---|---|---|---|---|---|---|
| 1778038309 | 4.44° C | 76% | 1011.3 hPa | 0 mm | 4.02 m/s, 338° | - | - |
| 1778037709 | 5° C | 75% | 1011.2 hPa | 0 mm | 3.58 m/s, 338° | - | - |
| 1778037108 | 5° C | 75% | 1011.1 hPa | 0 mm | 4.47 m/s, 341° | - | - |
| 1778036509 | 5° C | 75% | 1011 hPa | 0 mm | 2.68 m/s, 335° | - | - |
| 1778035908 | 5° C | 74% | 1011 hPa | 0 mm | 3.13 m/s, 336° | - | - |
| 1778035308 | 5.56° C | 75% | 1010.9 hPa | 0 mm | 3.58 m/s, 345° | - | - |
| 1778034709 | 5.56° C | 74% | 1010.9 hPa | 0 mm | 3.13 m/s, 343° | - | - |
| 1778034108 | 6.11° C | 72% | 1010.8 hPa | 0 mm | 2.24 m/s, 353° | - | - |
| 1778033508 | 6.67° C | 72% | 1010.7 hPa | 0 mm | 2.24 m/s, 335° | - | - |
| 1778032951 | 7.22° C | 70% | 1010.6 hPa | 0 mm | 3.13 m/s, 298° | - | - |
| 1778032908 | 7.22° C | 70% | 1010.6 hPa | 0 mm | 3.13 m/s, 298° | - | - |
| 1778032308 | 6.67° C | 71% | 1010.6 hPa | 0 mm | 2.68 m/s, 334° | - | - |
| 1778031708 | 6.11° C | 72% | 1010.6 hPa | 0 mm | 1.34 m/s, 336° | - | - |
| 1778031109 | 6.11° C | 73% | 1010.6 hPa | 0 mm | 1.79 m/s, 350° | - | - |
| 1778030509 | 6.67° C | 70% | 1010.5 hPa | 0 mm | 4.02 m/s, 341° | - | - |
| 1778029909 | 7.22° C | 69% | 1011.2 hPa | 0 mm | 2.24 m/s, 349° | - | - |
| 1778029356 | 7.22° C | 69% | 1011 hPa | 0 mm | 1.79 m/s, 304° | - | - |
| 1778029308 | 7.22° C | 69% | 1011 hPa | 0 mm | 1.79 m/s, 304° | - | - |
| 1778028708 | 6.67° C | 68% | 1011.2 hPa | 0 mm | 2.68 m/s, 330° | - | - |
| 1778028108 | 7.22° C | 65% | 1010.9 hPa | 0 mm | 4.47 m/s, 346° | - | - |
| 1778027509 | 7.78° C | 65% | 1010.9 hPa | 0 mm | 2.24 m/s, 312° | - | - |
| 1778026908 | 7.22° C | 65% | 1010.8 hPa | 0 mm | 2.24 m/s, 328° | - | - |
| 1778026308 | 7.78° C | 63% | 1010.9 hPa | 0 mm | 2.24 m/s, 330° | - | - |
| 1778025710 | 7.78° C | 63% | 1010.9 hPa | 0 mm | 2.68 m/s, 339° | - | - |
| 1778025108 | 7.78° C | 63% | 1010.9 hPa | 0 mm | 2.24 m/s, 314° | - | - |
* Rain latest hour (hover to see other rain measurements)
** Current wind speed in m/s (hover to see current wind gust speed)